| time (UTC) | temp C | wind direction | speed KPH | gust KPH | rain 1hr cm | rain 24hr cm | rain mn cm | humidity % | barometer mb |
| 20260508145016 | 18 | 93 | 3.2 | 9.7 | 0.00 | 0.23 | 0.00 | 57 | 1018.2 |
| 20260508144536 | 18 | 114 | 1.6 | 8.0 | 0.00 | 0.23 | 0.00 | 60 | 1018.2 |
| 20260508144015 | 18 | 213 | 1.6 | 8.0 | 0.00 | 0.23 | 0.00 | 60 | 1018.2 |
| 20260508143515 | 18 | 205 | 1.6 | 6.4 | 0.00 | 0.25 | 0.00 | 61 | 1018.2 |
| 20260508143016 | 17 | 75 | 3.2 | 9.7 | 0.00 | 0.25 | 0.00 | 58 | 1018.1 |
| 20260508142516 | 17 | 96 | 3.2 | 6.4 | 0.00 | 0.25 | 0.00 | 63 | 1018.2 |
| 20260508142016 | 17 | 87 | 1.6 | 8.0 | 0.00 | 0.25 | 0.00 | 64 | 1018.3 |
| 20260508141516 | 17 | 123 | 1.6 | 8.0 | 0.00 | 0.25 | 0.00 | 65 | 1018.3 |
| 20260508141016 | 17 | 92 | 3.2 | 8.0 | 0.00 | 0.25 | 0.00 | 66 | 1018.3 |
| 20260508140516 | 17 | 72 | 3.2 | 8.0 | 0.00 | 0.25 | 0.00 | 67 | 1018.3 |
| 20260508140016 | 17 | 99 | 1.6 | 8.0 | 0.00 | 0.25 | 0.00 | 70 | 1018.3 |
| 20260508135516 | 16 | 187 | 0.0 | 4.8 | 0.00 | 0.25 | 0.00 | 72 | 1018.3 |
| 20260508135016 | 16 | 78 | 3.2 | 8.0 | 0.00 | 0.25 | 0.00 | 70 | 1018.2 |
| 20260508134516 | 16 | 71 | 1.6 | 8.0 | 0.00 | 0.25 | 0.00 | 72 | 1018.2 |
| 20260508134016 | 16 | 93 | 1.6 | 8.0 | 0.00 | 0.25 | 0.00 | 73 | 1018.1 |
| 20260508133637 | 16 | 93 | 1.6 | 6.4 | 0.00 | 0.25 | 0.00 | 74 | 1018.1 |
| 20260508133017 | 16 | 99 | 1.6 | 6.4 | 0.00 | 0.25 | 0.00 | 75 | 1018.1 |
| 20260508132516 | 15 | 76 | 1.6 | 4.8 | 0.00 | 0.28 | 0.00 | 75 | 1018.1 |
| 20260508132016 | 15 | 90 | 1.6 | 4.8 | 0.00 | 0.28 | 0.00 | 76 | 1018.2 |
| 20260508131517 | 15 | 64 | 1.6 | 4.8 | 0.00 | 0.28 | 0.00 | 77 | 1018.1 |
| 20260508131017 | 15 | 101 | 0.0 | 4.8 | 0.00 | 0.28 | 0.00 | 79 | 1018.1 |
| 20260508130537 | 14 | 107 | 0.0 | 4.8 | 0.00 | 0.30 | 0.00 | 81 | 1018.0 |
| 20260508130017 | 14 | 153 | 0.0 | 4.8 | 0.00 | 0.36 | 0.00 | 81 | 1018.0 |
| 20260508125517 | 14 | 156 | 0.0 | 3.2 | 0.00 | 0.41 | 0.00 | 83 | 1017.9 |
| 20260508125037 | 13 | 110 | 1.6 | 4.8 | 0.00 | 0.46 | 0.00 | 83 | 1017.8 |
| 20260508124517 | 13 | 148 | 0.0 | 3.2 | 0.00 | 0.58 | 0.00 | 84 | 1017.7 |
| 20260508124017 | 13 | 199 | 1.6 | 4.8 | 0.00 | 0.71 | 0.00 | 86 | 1017.7 |
| 20260508123517 | 13 | 104 | 1.6 | 4.8 | 0.00 | 0.86 | 0.00 | 87 | 1017.6 |
| 20260508123018 | 13 | 98 | 1.6 | 4.8 | 0.00 | 0.91 | 0.00 | 88 | 1017.5 |
| 20260508122517 | 12 | 90 | 1.6 | 4.8 | 0.00 | 0.91 | 0.00 | 91 | 1017.5 |
| 20260508122017 | 12 | 162 | 0.0 | 3.2 | 0.00 | 0.91 | 0.00 | 92 | 1017.4 |
| 20260508121617 | 12 | 188 | 0.0 | 3.2 | 0.00 | 0.91 | 0.00 | 93 | 1017.4 |
| 20260508121017 | 12 | 108 | 1.6 | 6.4 | 0.00 | 0.91 | 0.00 | 93 | 1017.4 |
| 20260508120518 | 12 | 122 | 1.6 | 6.4 | 0.00 | 0.91 | 0.00 | 94 | 1017.4 |
| 20260508120015 | 12 | 193 | 0.0 | 3.2 | 0.00 | 0.91 | 0.00 | 96 | 1017.4 |
| 20260508115537 | 11 | 127 | 0.0 | 3.2 | 0.00 | 0.91 | 0.00 | 99 | 1017.3 |
| 20260508115038 | 11 | 80 | 0.0 | 3.2 | 0.00 | 0.91 | 0.00 | 99 | 1017.2 |
| 20260508114515 | 11 | 122 | 0.0 | 3.2 | 0.00 | 0.91 | 0.00 | 99 | 1017.1 |
| 20260508114018 | 11 | 146 | 0.0 | 3.2 | 0.00 | 0.91 | 0.00 | 99 | 1017.0 |
| 20260508113518 | 11 | 127 | 0.0 | 1.6 | 0.00 | 0.91 | 0.00 | 99 | 1016.9 |
| 20260508113015 | 10 | 0.0 | 0.0 | 0.00 | 0.91 | 0.00 | 99 | 1016.8 | |
| 20260508112515 | 10 | 0.0 | 0.0 | 0.00 | 0.91 | 0.00 | 99 | 1016.7 | |
| 20260508112026 | 10 | 0.0 | 0.0 | 0.00 | 0.91 | 0.00 | 99 | 1016.6 | |
| 20260508111546 | 9 | 0.0 | 0.0 | 0.00 | 0.91 | 0.00 | 99 | 1016.5 | |
| 20260508111106 | 8 | 0.0 | 0.0 | 0.00 | 0.91 | 0.00 | 99 | 1016.5 | |
| 20260508110526 | 8 | 0.0 | 0.0 | 0.00 | 0.91 | 0.00 | 99 | 1016.4 | |
| 20260508110026 | 8 | 0.0 | 0.0 | 0.00 | 0.91 | 0.00 | 99 | 1016.3 | |
| 20260508105526 | 8 | 0.0 | 0.0 | 0.00 | 0.91 | 0.00 | 99 | 1016.3 | |
| 20260508105026 | 8 | 0.0 | 0.0 | 0.00 | 0.91 | 0.00 | 99 | 1016.2 | |
| 20260508104526 | 8 | 0.0 | 0.0 | 0.00 | 0.91 | 0.00 | 99 | 1016.0 | |
| 20260508104027 | 8 | 0.0 | 0.0 | 0.00 | 0.91 | 0.00 | 99 | 1015.9 | |
| 20260508103527 | 8 | 0.0 | 0.0 | 0.00 | 0.91 | 0.00 | 99 | 1015.8 | |
| 20260508103027 | 8 | 0.0 | 0.0 | 0.00 | 0.91 | 0.00 | 99 | 1015.7 | |
| 20260508102547 | 8 | 0.0 | 0.0 | 0.00 | 0.91 | 0.00 | 99 | 1015.6 | |
| 20260508102027 | 8 | 0.0 | 0.0 | 0.00 | 0.91 | 0.00 | 99 | 1015.6 | |
| 20260508101527 | 8 | 0.0 | 0.0 | 0.00 | 0.91 | 0.00 | 99 | 1015.6 | |
| 20260508101027 | 8 | 0.0 | 0.0 | 0.00 | 0.91 | 0.00 | 99 | 1015.5 | |
| 20260508100527 | 8 | 111 | 0.0 | 0.0 | 0.00 | 0.91 | 0.00 | 99 | 1015.5 |
| 20260508100027 | 8 | 111 | 0.0 | 0.0 | 0.00 | 0.91 | 0.00 | 99 | 1015.4 |
| 20260508095527 | 8 | 0.0 | 0.0 | 0.00 | 0.91 | 0.00 | 99 | 1015.4 | |
| 20260508095027 | 8 | 0.0 | 0.0 | 0.00 | 0.91 | 0.00 | 99 | 1015.4 | |
| 20260508094527 | 8 | 0.0 | 0.0 | 0.00 | 0.91 | 0.00 | 99 | 1015.3 | |
| 20260508094028 | 8 | 0.0 | 0.0 | 0.00 | 0.94 | 0.00 | 99 | 1015.3 | |
| 20260508093528 | 8 | 0.0 | 0.0 | 0.00 | 0.94 | 0.00 | 99 | 1015.3 | |
| 20260508093027 | 8 | 163 | 0.0 | 1.6 | 0.00 | 0.97 | 0.00 | 99 | 1015.3 |
| 20260508092528 | 9 | 0.0 | 0.0 | 0.00 | 0.97 | 0.00 | 99 | 1015.3 | |
| 20260508092028 | 9 | 0.0 | 0.0 | 0.00 | 0.97 | 0.00 | 99 | 1015.2 | |
| 20260508091528 | 8 | 0.0 | 0.0 | 0.00 | 0.99 | 0.00 | 99 | 1015.1 | |
| 20260508091028 | 8 | 0.0 | 0.0 | 0.00 | 0.99 | 0.00 | 99 | 1015.1 | |
| 20260508090528 | 8 | 0.0 | 0.0 | 0.00 | 0.99 | 0.00 | 99 | 1015.1 | |
| 20260508090028 | 9 | 0.0 | 0.0 | 0.00 | 1.02 | 0.00 | 99 | 1015.2 | |
| 20260508085528 | 9 | 0.0 | 0.0 | 0.00 | 1.02 | 0.00 | 99 | 1015.1 | |
| 20260508085028 | 9 | 0.0 | 0.0 | 0.00 | 1.04 | 0.00 | 99 | 1015.0 | |
| 20260508084528 | 9 | 0.0 | 0.0 | 0.00 | 1.04 | 0.00 | 99 | 1015.0 | |
| 20260508084029 | 9 | 0.0 | 0.0 | 0.00 | 1.04 | 0.00 | 99 | 1015.0 | |
| 20260508083528 | 9 | 0.0 | 0.0 | 0.00 | 1.04 | 0.00 | 99 | 1014.9 | |
| 20260508083028 | 9 | 0.0 | 0.0 | 0.00 | 1.04 | 0.00 | 99 | 1014.9 | |
| 20260508082528 | 9 | 0.0 | 0.0 | 0.00 | 1.07 | 0.00 | 99 | 1014.9 | |
| 20260508082029 | 9 | 0.0 | 0.0 | 0.00 | 1.09 | 0.00 | 99 | 1014.8 | |
| 20260508081529 | 9 | 0.0 | 0.0 | 0.00 | 1.12 | 0.00 | 99 | 1014.8 | |
| 20260508081029 | 9 | 0.0 | 0.0 | 0.00 | 1.14 | 0.00 | 99 | 1014.6 | |
| 20260508080549 | 10 | 0.0 | 0.0 | 0.00 | 1.17 | 0.00 | 99 | 1014.6 | |
| 20260508080029 | 10 | 0.0 | 0.0 | 0.00 | 1.22 | 0.00 | 99 | 1014.5 | |
| 20260508075529 | 10 | 0.0 | 0.0 | 0.00 | 1.27 | 0.00 | 99 | 1014.5 | |
| 20260508075029 | 10 | 0.0 | 0.0 | 0.00 | 1.30 | 0.00 | 99 | 1014.5 | |
| 20260508074529 | 10 | 0.0 | 0.0 | 0.00 | 1.30 | 0.00 | 99 | 1014.6 | |
| 20260508074029 | 10 | 174 | 0.0 | 0.0 | 0.00 | 1.32 | 0.00 | 99 | 1014.6 |
| 20260508073529 | 10 | 174 | 0.0 | 1.6 | 0.00 | 1.32 | 0.00 | 99 | 1014.4 |
| 20260508073030 | 10 | 0.0 | 0.0 | 0.00 | 1.35 | 0.00 | 99 | 1014.4 | |
| 20260508072516 | 10 | 0.0 | 0.0 | 0.00 | 1.37 | 0.00 | 99 | 1014.3 | |
| 20260508072016 | 10 | 0.0 | 0.0 | 0.00 | 1.40 | 0.00 | 99 | 1014.3 | |
| 20260508071516 | 10 | 0.0 | 0.0 | 0.00 | 1.45 | 0.00 | 99 | 1014.3 | |
| 20260508071036 | 11 | 0.0 | 0.0 | 0.00 | 1.52 | 0.00 | 99 | 1014.3 | |
| 20260508070516 | 11 | 0.0 | 0.0 | 0.00 | 1.57 | 0.00 | 99 | 1014.3 | |
| 20260508070016 | 11 | 0.0 | 0.0 | 0.00 | 1.63 | 0.00 | 99 | 1014.2 | |
| 20260508065516 | 11 | 0.0 | 0.0 | 0.00 | 1.70 | 0.00 | 99 | 1014.2 | |
| 20260508065016 | 11 | 0.0 | 0.0 | 0.00 | 1.75 | 0.00 | 99 | 1014.2 | |
| 20260508064516 | 11 | 0.0 | 0.0 | 0.00 | 1.83 | 0.00 | 99 | 1014.2 | |
| 20260508064016 | 11 | 0.0 | 0.0 | 0.00 | 1.91 | 0.00 | 99 | 1014.2 | |
| 20260508063536 | 11 | 0.0 | 0.0 | 0.00 | 1.96 | 0.00 | 99 | 1014.3 | |
| 20260508062530 | 11 | 0.0 | 0.0 | 0.00 | 2.24 | 0.00 | 99 | 1014.4 | |
| 20260508062030 | 11 | 0.0 | 0.0 | 0.00 | 2.31 | 0.00 | 99 | 1014.4 | |
| 20260508061531 | 12 | 0.0 | 0.0 | 0.00 | 2.39 | 0.00 | 99 | 1014.4 | |
| 20260508061030 | 12 | 0.0 | 0.0 | 0.00 | 2.41 | 0.00 | 99 | 1014.4 | |
| 20260508060531 | 12 | 0.0 | 0.0 | 0.00 | 2.41 | 0.00 | 99 | 1014.3 | |
| 20260508060051 | 12 | 0.0 | 0.0 | 0.00 | 2.41 | 0.00 | 99 | 1014.4 | |
| 20260508055551 | 12 | 0.0 | 0.0 | 0.00 | 2.41 | 0.00 | 99 | 1014.5 | |
| 20260508055031 | 12 | 0.0 | 0.0 | 0.00 | 2.41 | 0.00 | 99 | 1014.4 | |
| 20260508054520 | 12 | 0.0 | 0.0 | 0.00 | 2.41 | 0.00 | 99 | 1014.5 | |
| 20260508054021 | 12 | 157 | 0.0 | 3.2 | 0.00 | 2.41 | 0.00 | 99 | 1014.3 |
| 20260508053520 | 12 | 0.0 | 0.0 | 0.00 | 2.44 | 0.00 | 99 | 1014.2 | |
| 20260508053021 | 12 | 0.0 | 0.0 | 0.00 | 2.44 | 0.00 | 99 | 1014.3 | |
| 20260508052518 | 12 | 0.0 | 0.0 | 0.00 | 2.44 | 0.00 | 99 | 1014.3 | |
| 20260508052018 | 12 | 0.0 | 0.0 | 0.00 | 2.44 | 0.00 | 99 | 1014.3 | |
| 20260508051518 | 12 | 179 | 0.0 | 1.6 | 0.00 | 2.44 | 0.00 | 99 | 1014.3 |
| 20260508051018 | 12 | 0.0 | 0.0 | 0.00 | 2.44 | 0.00 | 99 | 1014.3 | |
| 20260508050518 | 12 | 0.0 | 0.0 | 0.00 | 2.44 | 0.00 | 99 | 1014.3 | |
| 20260508050015 | 12 | 0.0 | 0.0 | 0.00 | 2.44 | 0.00 | 99 | 1014.1 | |
| 20260508045515 | 12 | 0.0 | 0.0 | 0.00 | 2.44 | 0.00 | 99 | 1014.2 | |
| 20260508045015 | 13 | 0.0 | 0.0 | 0.00 | 2.44 | 0.00 | 99 | 1014.1 | |
| 20260508044515 | 13 | 0.0 | 0.0 | 0.00 | 2.44 | 0.00 | 99 | 1014.0 | |
| 20260508044015 | 13 | 0.0 | 0.0 | 0.00 | 2.44 | 0.00 | 99 | 1014.0 | |
| 20260508043536 | 13 | 0.0 | 0.0 | 0.00 | 2.44 | 0.00 | 99 | 1014.0 | |
| 20260508043015 | 13 | 0.0 | 0.0 | 0.00 | 2.44 | 0.00 | 99 | 1014.1 | |
| 20260508042516 | 13 | 0.0 | 0.0 | 0.00 | 2.44 | 0.00 | 99 | 1014.0 | |
| 20260508042016 | 13 | 0.0 | 0.0 | 0.00 | 2.44 | 0.00 | 99 | 1013.9 | |
| 20260508041516 | 13 | 0.0 | 0.0 | 0.00 | 2.44 | 0.00 | 99 | 1013.9 | |
| 20260508041016 | 12 | 0.0 | 0.0 | 0.00 | 2.44 | 0.00 | 99 | 1013.9 | |
| 20260508040516 | 12 | 0.0 | 0.0 | 0.00 | 2.44 | 0.00 | 99 | 1013.8 | |
| 20260508040016 | 12 | 0.0 | 0.0 | 0.00 | 2.44 | 0.00 | 99 | 1013.9 | |
| 20260508035556 | 12 | 161 | 0.0 | 1.6 | 0.00 | 2.44 | 2.44 | 99 | 1014.0 |
| 20260508035016 | 12 | 169 | 0.0 | 1.6 | 0.00 | 2.44 | 2.44 | 99 | 1013.8 |
| 20260508034516 | 13 | 0.0 | 0.0 | 0.00 | 2.44 | 2.44 | 99 | 1013.7 | |
| 20260508034016 | 13 | 0.0 | 0.0 | 0.00 | 2.44 | 2.44 | 99 | 1013.7 | |
| 20260508033516 | 13 | 0.0 | 0.0 | 0.00 | 2.44 | 2.44 | 99 | 1013.7 | |
| 20260508033016 | 13 | 0.0 | 0.0 | 0.00 | 2.44 | 2.44 | 99 | 1013.8 | |
| 20260508032517 | 13 | 0.0 | 0.0 | 0.00 | 2.46 | 2.44 | 99 | 1014.0 | |
| 20260508032017 | 13 | 327 | 0.0 | 0.0 | 0.00 | 2.46 | 2.44 | 99 | 1013.8 |
| 20260508031517 | 13 | 0.0 | 0.0 | 0.00 | 2.46 | 2.44 | 100 | 1013.7 | |
| 20260508031017 | 13 | 0.0 | 0.0 | 0.00 | 2.46 | 2.44 | 100 | 1013.7 | |
| 20260508030517 | 13 | 0.0 | 0.0 | 0.00 | 2.46 | 2.44 | 100 | 1013.7 | |
| 20260508030017 | 13 | 0.0 | 0.0 | 0.00 | 2.46 | 2.44 | 99 | 1013.7 | |
| 20260508025517 | 13 | 0.0 | 0.0 | 0.00 | 2.49 | 2.44 | 99 | 1013.6 | |
| 20260508025017 | 13 | 0.0 | 0.0 | 0.00 | 2.51 | 2.44 | 99 | 1013.6 | |
| 20260508024537 | 13 | 249 | 0.0 | 0.0 | 0.00 | 2.57 | 2.44 | 99 | 1013.5 |
| 20260508024017 | 13 | 166 | 0.0 | 3.2 | 0.00 | 2.64 | 2.44 | 99 | 1013.4 |
| 20260508023517 | 13 | 0.0 | 0.0 | 0.00 | 2.67 | 2.44 | 99 | 1013.5 | |
| 20260508023017 | 13 | 0.0 | 0.0 | 0.00 | 2.74 | 2.44 | 99 | 1013.3 | |
| 20260508022517 | 13 | 153 | 0.0 | 1.6 | 0.00 | 2.77 | 2.44 | 99 | 1013.2 |
| 20260508022018 | 13 | 131 | 0.0 | 4.8 | 0.00 | 2.79 | 2.44 | 98 | 1013.1 |
| 20260508021518 | 13 | 81 | 1.6 | 3.2 | 0.00 | 2.82 | 2.44 | 98 | 1013.0 |
| 20260508021018 | 13 | 103 | 1.6 | 4.8 | 0.00 | 2.84 | 2.44 | 98 | 1013.0 |
| 20260508020518 | 13 | 100 | 1.6 | 3.2 | 0.00 | 2.84 | 2.44 | 98 | 1012.9 |
| 20260508020015 | 13 | 90 | 1.6 | 3.2 | 0.00 | 2.84 | 2.44 | 99 | 1012.8 |
| 20260508015518 | 13 | 109 | 1.6 | 3.2 | 0.00 | 2.87 | 2.44 | 99 | 1012.7 |
| 20260508015018 | 13 | 105 | 0.0 | 3.2 | 0.00 | 2.87 | 2.44 | 98 | 1012.7 |
| 20260508014515 | 13 | 115 | 0.0 | 4.8 | 0.00 | 2.87 | 2.44 | 98 | 1012.6 |
| 20260508014023 | 13 | 97 | 1.6 | 4.8 | 0.00 | 2.87 | 2.44 | 98 | 1012.5 |
| 20260508013518 | 13 | 95 | 0.0 | 1.6 | 0.00 | 2.87 | 2.44 | 98 | 1012.5 |
| 20260508013035 | 13 | 170 | 0.0 | 3.2 | 0.00 | 2.87 | 2.44 | 98 | 1012.4 |
| 20260508012515 | 14 | 127 | 1.6 | 6.4 | 0.00 | 2.87 | 2.44 | 98 | 1012.3 |
| 20260508012015 | 14 | 141 | 0.0 | 3.2 | 0.00 | 2.87 | 2.44 | 98 | 1012.2 |
| 20260508011515 | 14 | 144 | 0.0 | 3.2 | 0.00 | 2.90 | 2.44 | 98 | 1012.2 |
| 20260508011016 | 14 | 82 | 0.0 | 3.2 | 0.00 | 3.10 | 2.44 | 98 | 1012.3 |
| 20260508010516 | 14 | 295 | 0.0 | 3.2 | 0.05 | 3.17 | 2.44 | 97 | 1012.3 |
| 20260508010036 | 14 | 136 | 0.0 | 4.8 | 0.08 | 3.20 | 2.44 | 98 | 1011.9 |
| 20260508005516 | 14 | 104 | 0.0 | 3.2 | 0.08 | 3.20 | 2.44 | 98 | 1011.8 |
| 20260508005016 | 14 | 85 | 1.6 | 4.8 | 0.08 | 3.20 | 2.44 | 97 | 1011.6 |
| 20260508004516 | 14 | 73 | 1.6 | 6.4 | 0.08 | 3.20 | 2.44 | 97 | 1011.7 |
| 20260508004016 | 14 | 70 | 1.6 | 4.8 | 0.10 | 3.20 | 2.44 | 97 | 1011.7 |
| 20260508003516 | 14 | 104 | 0.0 | 3.2 | 0.23 | 3.20 | 2.44 | 96 | 1011.7 |
| 20260508003016 | 14 | 111 | 1.6 | 6.4 | 0.23 | 3.20 | 2.44 | 96 | 1011.5 |
| 20260508002517 | 14 | 152 | 1.6 | 3.2 | 0.23 | 3.20 | 2.44 | 96 | 1011.2 |
| 20260508002017 | 14 | 57 | 1.6 | 8.0 | 0.23 | 3.20 | 2.44 | 96 | 1011.0 |
| 20260508001517 | 14 | 83 | 1.6 | 4.8 | 0.23 | 3.20 | 2.41 | 96 | 1011.2 |
| 20260508001016 | 14 | 71 | 1.6 | 4.8 | 0.20 | 3.20 | 2.41 | 96 | 1011.1 |
| 20260508000516 | 14 | 148 | 1.6 | 6.4 | 0.18 | 3.17 | 2.39 | 96 | 1010.7 |
| 20260508000017 | 14 | 103 | 3.2 | 6.4 | 0.15 | 3.12 | 2.34 | 95 | 1010.2 |
| 20260507235517 | 15 | 113 | 3.2 | 12.9 | 0.15 | 3.12 | 2.34 | 95 | 1010.3 |
| 20260507235037 | 15 | 123 | 3.2 | 12.9 | 0.15 | 3.12 | 2.34 | 94 | 1010.0 |
| 20260507234517 | 15 | 117 | 3.2 | 8.0 | 0.13 | 3.12 | 2.34 | 93 | 1009.8 |
| 20260507234017 | 15 | 123 | 3.2 | 11.3 | 0.13 | 3.12 | 2.34 | 89 | 1010.0 |
| 20260507233557 | 16 | 157 | 1.6 | 12.9 | 0.00 | 2.97 | 2.21 | 87 | 1010.4 |
| 20260507233038 | 16 | 150 | 3.2 | 9.7 | 0.00 | 2.97 | 2.21 | 87 | 1009.8 |
| 20260507232517 | 16 | 99 | 3.2 | 11.3 | 0.00 | 2.97 | 2.21 | 86 | 1009.7 |
| 20260507232017 | 16 | 90 | 3.2 | 14.5 | 0.00 | 2.97 | 2.21 | 86 | 1009.2 |
| 20260507231538 | 16 | 120 | 4.8 | 12.9 | 0.00 | 2.97 | 2.21 | 86 | 1008.8 |
| 20260507231037 | 16 | 104 | 4.8 | 14.5 | 0.00 | 2.97 | 2.21 | 86 | 1008.9 |
| 20260507230518 | 16 | 122 | 3.2 | 9.7 | 0.00 | 2.97 | 2.21 | 86 | 1009.2 |
| 20260507230017 | 16 | 120 | 4.8 | 12.9 | 0.00 | 2.97 | 2.21 | 85 | 1009.1 |
| 20260507225518 | 17 | 127 | 4.8 | 12.9 | 0.00 | 2.97 | 2.21 | 85 | 1009.1 |
| 20260507225038 | 17 | 102 | 4.8 | 16.1 | 0.00 | 2.97 | 2.21 | 84 | 1009.0 |
| 20260507224518 | 18 | 141 | 4.8 | 14.5 | 0.00 | 2.97 | 2.21 | 84 | 1008.9 |
| 20260507224015 | 19 | 177 | 3.2 | 11.3 | 0.00 | 2.97 | 2.21 | 83 | 1009.1 |
| 20260507223515 | 22 | 193 | 4.8 | 14.5 | 0.00 | 2.97 | 2.21 | 78 | 1008.6 |
| 20260507223015 | 24 | 251 | 4.8 | 12.9 | 0.00 | 2.97 | 2.21 | 71 | 1008.2 |
| 20260507222518 | 25 | 293 | 1.6 | 9.7 | 0.00 | 2.97 | 2.21 | 70 | 1007.7 |
| 20260507222015 | 25 | 237 | 1.6 | 8.0 | 0.00 | 2.97 | 2.21 | 69 | 1007.5 |
| 20260507221515 | 25 | 303 | 1.6 | 6.4 | 0.00 | 2.97 | 2.21 | 68 | 1007.4 |
| 20260507221015 | 26 | 203 | 3.2 | 11.3 | 0.00 | 2.97 | 2.21 | 66 | 1007.4 |
| 20260507220515 | 26 | 189 | 4.8 | 12.9 | 0.00 | 2.97 | 2.21 | 66 | 1007.3 |
| 20260507220016 | 26 | 280 | 3.2 | 9.7 | 0.00 | 2.97 | 2.21 | 66 | 1007.1 |
| 20260507215516 | 26 | 293 | 3.2 | 11.3 | 0.00 | 2.97 | 2.21 | 66 | 1007.2 |
| 20260507215016 | 25 | 191 | 4.8 | 14.5 | 0.00 | 2.97 | 2.21 | 67 | 1007.1 |
| 20260507214516 | 25 | 188 | 4.8 | 16.1 | 0.00 | 2.97 | 2.21 | 68 | 1007.0 |
| 20260507214015 | 25 | 187 | 6.4 | 16.1 | 0.00 | 2.97 | 2.21 | 68 | 1006.9 |
| 20260507213516 | 25 | 195 | 3.2 | 11.3 | 0.00 | 2.97 | 2.21 | 67 | 1007.0 |
| 20260507213056 | 25 | 192 | 6.4 | 12.9 | 0.00 | 2.97 | 2.21 | 69 | 1007.0 |
| 20260507212516 | 25 | 186 | 6.4 | 12.9 | 0.00 | 2.97 | 2.21 | 71 | 1007.1 |
| 20260507212036 | 26 | 190 | 4.8 | 12.9 | 0.00 | 2.97 | 2.21 | 70 | 1007.2 |
| 20260507211516 | 26 | 190 | 4.8 | 14.5 | 0.00 | 2.97 | 2.21 | 67 | 1007.1 |
| 20260507211016 | 26 | 211 | 3.2 | 11.3 | 0.00 | 2.97 | 2.21 | 64 | 1007.2 |
| 20260507210516 | 26 | 194 | 4.8 | 14.5 | 0.00 | 2.97 | 2.21 | 65 | 1007.1 |
| 20260507210017 | 25 | 216 | 3.2 | 12.9 | 0.00 | 2.97 | 2.21 | 67 | 1007.1 |
| 20260507205516 | 25 | 188 | 4.8 | 14.5 | 0.00 | 2.97 | 2.21 | 68 | 1007.1 |
| 20260507205016 | 25 | 223 | 3.2 | 8.0 | 0.00 | 2.97 | 2.21 | 67 | 1007.2 |
| 20260507204517 | 26 | 262 | 3.2 | 12.9 | 0.00 | 2.97 | 2.21 | 66 | 1007.2 |
| 20260507204017 | 26 | 299 | 3.2 | 9.7 | 0.00 | 2.97 | 2.21 | 65 | 1007.2 |
| 20260507203536 | 26 | 187 | 4.8 | 14.5 | 0.00 | 2.97 | 2.21 | 64 | 1007.1 |
| 20260507203037 | 26 | 201 | 3.2 | 12.9 | 0.00 | 2.97 | 2.21 | 64 | 1007.1 |
| 20260507202517 | 25 | 207 | 4.8 | 12.9 | 0.00 | 2.97 | 2.21 | 65 | 1007.2 |
| 20260507202037 | 25 | 192 | 6.4 | 12.9 | 0.00 | 2.97 | 2.21 | 65 | 1007.3 |
| 20260507201517 | 25 | 236 | 3.2 | 9.7 | 0.00 | 2.97 | 2.21 | 67 | 1007.3 |
| 20260507201017 | 25 | 210 | 4.8 | 12.9 | 0.00 | 2.97 | 2.21 | 68 | 1007.5 |
| 20260507200517 | 25 | 255 | 3.2 | 11.3 | 0.00 | 2.97 | 2.21 | 69 | 1007.5 |
| 20260507200017 | 25 | 296 | 3.2 | 9.7 | 0.00 | 2.97 | 2.21 | 70 | 1007.6 |
| 20260507195517 | 24 | 260 | 1.6 | 8.0 | 0.00 | 2.97 | 2.21 | 72 | 1007.6 |
| 20260507195018 | 24 | 216 | 1.6 | 6.4 | 0.00 | 2.97 | 2.21 | 72 | 1007.8 |
| 20260507194517 | 25 | 227 | 1.6 | 6.4 | 0.00 | 2.97 | 2.21 | 72 | 1008.1 |
| 20260507194017 | 25 | 239 | 3.2 | 11.3 | 0.00 | 2.97 | 2.21 | 71 | 1008.0 |
| 20260507193518 | 25 | 215 | 4.8 | 11.3 | 0.00 | 2.97 | 2.21 | 73 | 1008.0 |
| 20260507193018 | 24 | 191 | 4.8 | 11.3 | 0.00 | 2.97 | 2.21 | 73 | 1008.1 |
| 20260507192518 | 23 | 239 | 3.2 | 9.7 | 0.00 | 2.97 | 2.21 | 74 | 1008.3 |
| 20260507192038 | 23 | 189 | 4.8 | 11.3 | 0.00 | 2.97 | 2.21 | 75 | 1008.3 |
| 20260507191518 | 23 | 207 | 4.8 | 9.7 | 0.00 | 2.97 | 2.21 | 76 | 1008.3 |
| 20260507191018 | 23 | 256 | 3.2 | 6.4 | 0.00 | 2.97 | 2.21 | 76 | 1008.3 |
| 20260507190518 | 23 | 194 | 3.2 | 9.7 | 0.00 | 2.97 | 2.21 | 77 | 1008.3 |
| 20260507190015 | 23 | 298 | 1.6 | 8.0 | 0.00 | 2.97 | 2.21 | 79 | 1008.4 |
| 20260507185515 | 23 | 240 | 1.6 | 6.4 | 0.00 | 2.97 | 2.21 | 79 | 1008.3 |
| 20260507185018 | 23 | 296 | 1.6 | 6.4 | 0.00 | 2.97 | 2.21 | 79 | 1008.2 |
| 20260507184558 | 22 | 222 | 1.6 | 8.0 | 0.00 | 2.97 | 2.21 | 80 | 1008.3 |
| 20260507184035 | 23 | 292 | 3.2 | 8.0 | 0.00 | 2.97 | 2.21 | 80 | 1008.3 |
| 20260507183516 | 23 | 289 | 1.6 | 9.7 | 0.00 | 2.97 | 2.21 | 79 | 1008.3 |
| 20260507183015 | 23 | 297 | 1.6 | 6.4 | 0.00 | 2.97 | 2.21 | 80 | 1008.3 |
| 20260507182516 | 23 | 292 | 1.6 | 4.8 | 0.00 | 3.00 | 2.21 | 81 | 1008.2 |
| 20260507182016 | 23 | 247 | 1.6 | 6.4 | 0.00 | 3.02 | 2.21 | 82 | 1008.2 |
| 20260507181516 | 23 | 195 | 1.6 | 9.7 | 0.00 | 3.05 | 2.21 | 81 | 1008.1 |
| 20260507181016 | 23 | 275 | 3.2 | 11.3 | 0.00 | 3.07 | 2.21 | 81 | 1008.2 |
| 20260507180516 | 22 | 280 | 3.2 | 6.4 | 0.00 | 3.07 | 2.21 | 83 | 1008.4 |
| 20260507180056 | 22 | 304 | 3.2 | 8.0 | 0.00 | 3.07 | 2.21 | 84 | 1008.4 |
| 20260507175516 | 22 | 279 | 1.6 | 8.0 | 0.00 | 3.07 | 2.21 | 84 | 1008.5 |
| 20260507175016 | 22 | 259 | 3.2 | 8.0 | 0.00 | 3.07 | 2.21 | 85 | 1008.7 |
| 20260507174516 | 21 | 199 | 3.2 | 11.3 | 0.00 | 3.07 | 2.21 | 87 | 1008.9 |
| 20260507174016 | 21 | 245 | 1.6 | 6.4 | 0.00 | 3.07 | 2.21 | 88 | 1008.8 |
| 20260507173516 | 21 | 237 | 3.2 | 6.4 | 0.00 | 3.07 | 2.21 | 88 | 1008.8 |
| 20260507173016 | 21 | 191 | 1.6 | 9.7 | 0.00 | 3.07 | 2.21 | 88 | 1008.8 |
| 20260507172516 | 21 | 261 | 1.6 | 6.4 | 0.00 | 3.07 | 2.21 | 89 | 1009.0 |
| 20260507172016 | 21 | 307 | 1.6 | 8.0 | 0.00 | 3.07 | 2.21 | 88 | 1008.9 |
| 20260507171537 | 21 | 206 | 3.2 | 9.7 | 0.00 | 3.07 | 2.21 | 89 | 1008.7 |
| 20260507171017 | 21 | 190 | 4.8 | 8.0 | 0.00 | 3.07 | 2.21 | 89 | 1008.8 |
| 20260507170517 | 21 | 235 | 1.6 | 8.0 | 0.00 | 3.07 | 2.21 | 90 | 1008.7 |
| 20260507170017 | 21 | 199 | 1.6 | 9.7 | 0.00 | 3.07 | 2.21 | 91 | 1008.9 |
| 20260507165517 | 21 | 191 | 3.2 | 8.0 | 0.00 | 3.07 | 2.21 | 91 | 1009.1 |
| 20260507165017 | 21 | 267 | 1.6 | 6.4 | 0.00 | 3.07 | 2.21 | 92 | 1009.4 |
| 20260507164517 | 21 | 260 | 3.2 | 11.3 | 0.00 | 3.07 | 2.21 | 93 | 1009.5 |
| 20260507164017 | 20 | 292 | 1.6 | 6.4 | 0.00 | 3.07 | 2.21 | 94 | 1009.7 |
| 20260507163517 | 20 | 209 | 1.6 | 8.0 | 0.00 | 3.07 | 2.21 | 94 | 1009.7 |
| 20260507163017 | 20 | 220 | 1.6 | 6.4 | 0.00 | 3.07 | 2.21 | 93 | 1009.6 |
| 20260507162517 | 20 | 223 | 3.2 | 8.0 | 0.00 | 3.07 | 2.21 | 93 | 1009.2 |
| 20260507162017 | 20 | 196 | 3.2 | 9.7 | 0.00 | 3.07 | 2.21 | 93 | 1009.1 |
| 20260507161517 | 21 | 247 | 1.6 | 6.4 | 0.00 | 3.07 | 2.21 | 93 | 1009.3 |
| 20260507161018 | 21 | 287 | 1.6 | 4.8 | 0.00 | 3.07 | 2.21 | 94 | 1008.9 |
| 20260507160517 | 21 | 194 | 4.8 | 8.0 | 0.00 | 3.07 | 2.21 | 92 | 1008.6 |
| 20260507160018 | 21 | 193 | 3.2 | 6.4 | 0.00 | 3.07 | 2.21 | 92 | 1008.4 |
| 20260507155530 | 21 | 199 | 3.2 | 6.4 | 0.00 | 3.07 | 2.21 | 92 | 1008.3 |
| 20260507155030 | 21 | 192 | 1.6 | 6.4 | 0.00 | 3.07 | 2.21 | 92 | 1008.4 |
| 20260507154550 | 21 | 209 | 3.2 | 4.8 | 0.00 | 3.07 | 2.21 | 93 | 1008.3 |
| 20260507154015 | 21 | 158 | 0.0 | 3.2 | 0.03 | 3.07 | 2.21 | 94 | 1008.3 |
| 20260507153515 | 20 | 182 | 1.6 | 3.2 | 0.03 | 3.07 | 2.21 | 93 | 1008.4 |
| 20260507153015 | 20 | 193 | 3.2 | 6.4 | 0.03 | 3.07 | 2.21 | 94 | 1008.5 |
| 20260507152550 | 20 | 307 | 1.6 | 4.8 | 0.03 | 3.07 | 2.21 | 96 | 1008.8 |
| 20260507152051 | -17 | 0.0 | 0.0 | 0.03 | 3.07 | 2.21 | |||
| 20260507151530 | 20 | 294 | 0.0 | 0.0 | 0.03 | 3.07 | 2.21 | 98 | 1009.0 |
| 20260507151015 | 20 | 295 | 1.6 | 3.2 | 0.03 | 3.07 | 2.21 | 98 | 1009.3 |
| 20260507150516 | 20 | 224 | 1.6 | 6.4 | 0.03 | 3.07 | 2.21 | 98 | 1009.6 |
| 20260507150015 | 20 | 265 | 3.2 | 6.4 | 0.03 | 3.07 | 2.21 | 98 | 1009.7 |
| 20260507145516 | 19 | 194 | 1.6 | 4.8 | 0.03 | 3.07 | 2.21 | 98 | 1009.6 |